Terminal Aerodrome Forecast
Issued by NWS

Home | Current Version | Previous Version | Text Only | Print | Product List | Glossary On
Versions: 1 2 3 4 5 6 7 8 9 10 11 12 13 14 15 16 17 18
000
FTUS41 KBGM 011733
TAFRME
TAF
KRME 011733Z 0118/0218 28010G14KT P6SM SCT050
     FM020000 09003KT P6SM SCT100
     FM021500 25010KT P6SM SCT050=

USA.gov is the U.S. government's official web portal to all federal, state and local government web resources and services.